Torna al catalogo

STARLINK-36710

AttivoComunicazioniSSO
NORAD 67971·PAYLOAD·🇺🇸 United States

Lanciato Feb 25, 2026 da Vandenberg Space Force Base

Loading…

Prossimi Passaggi (prossime 24 ore)

TLE

AggiornatoSource: CelesTrak SupGP

Epoca: Sep 14, 2026, 21:30 UTC

1 67971C 26038L   26257.89631944  .00037001  00000+0  11488-2 0  2576
2 67971  97.2847 266.3148 0001683  88.8290 299.8291 15.33415694    14

Traccia STARLINK-36710 in tempo reale con AllMySat

Download on the App Store